Location: Boćki
(52.6512°N, 23.0459°E)
Time: 15:04:50
(UTC+01:00)

ISS - Pass Details

Date: 24 January 2019
Orbit: 403 x 411 km, 51.6° (Epoch: 16 February)

Event Time Altitude Azimuth Distance (km) Brightness Sun altitude
Rises 17:45:23 0° 207° (SSW) 2,326 0.6 -15.9°
Reaches altitude 10° 17:47:56 10° 187° (S) 1,471 -0.8 -16.3°
Enters shadow 17:50:01 17° 148° (SSE) 1,125 -1.8 -16.6°
